Location: Cactus School
(34.5700°N, 118.0931°W)
Time: 09:04:18
(UTC-07:00)

A-11 Canister half - Pass Details

Date: 29 April 2024
Orbit: 1525 x 1683 km, 47.3° (Epoch: 21 May)

Event Time Altitude Azimuth Distance (km) Brightness Sun altitude
Exits shadow 04:15:46 29° 246° (WSW) 2,649 9.6 -20.6°
Maximum altitude 04:21:36 76° 327° (NNW) 1,688 9.1 -19.6°
Drops below altitude 10° 04:31:44 10° 53° (NE) 3,934 12.4 -17.9°
Sets 04:34:57 0° 56° (NE) 4,933 13.4 -17.3°
